Tracking 22081 objects as of 4-Dec-2020
HD Live streaming from Space Station
objects crossing your sky now

LEMUR 2 YNDRD

Track LEMUR 2 YNDRD now!
10-day predictions
LEMUR 2 YNDRD is classified as:


NORAD ID: 44413
Int'l Code: 2019-038AD
Perigee: 519.9 km
Apogee: 549.8 km
Inclination: 97.6 °
Period: 95.2 minutes
Semi major axis: 6905 km
RCS: Unknown
Launch date: July 5, 2019
Source: United States (US)
Launch site: VOSTOCHNY COSMODROME (VOSTO)
aabbcc
Your satellite tracking list
Your tracking list is empty




NASA's NSSDC Master Catalog

Two Line Element Set (TLE):
1 44413U 19038AD  20338.59974997  .00002006  00000-0  11751-3 0  9998
2 44413  97.5594 298.0566 0021653 268.2789  91.5961 15.12796072 78154
Source of the keplerian elements: AFSPC